Wind_Speed
5 5 5 5 5 5 5 5 5 4 4 4 4 4 3 3 4 3 3 3 3 3 3 3 3 3 3 3 3 3 4 4 4 4 5 5 6 6 6 6 6 6 6
5 4 4 4 4 4 4 4 5 5 5 5 5 4 4 4 4 4 4 4 4 4 4 4 4 4 4 4 4 4 4 4 5 5 5 6 7 7 7 7 7 7 8
4 3 3 3 3 3 3 4 5 5 5 5 6 6 6 5 5 5 5 5 5 5 6 6 6 6 6 6 5 5 5 6 6 6 7 7 8 8 8 9 9 9 9
2 2 1 1 2 3 3 3 4 5 5 5 6 7 7 7 6 6 6 6 6 6 6 7 7 7 7 7 7 7 7 8 8 8 8 9 9 10 10 10 10 10 11
2 1 1 0 1 2 3 4 4 5 5 6 6 7 8 8 7 7 7 7 7 7 8 8 7 8 8 8 9 9 9 9 10 10 10 10 11 11 12 12 11 11 12
2 1 1 1 1 3 3 4 5 6 6 6 6 7 7 8 8 8 9 9 9 9 9 9 9 9 9 10 10 11 11 11 12 12 12 12 12 12 13 13 13 13 13
3 2 3 3 3 3 5 5 5 7 7 7 7 7 7 8 8 9 10 10 11 10 10 10 10 10 11 11 11 12 13 13 13 13 14 14 14 14 14 15 14 15 14
3 3 3 3 4 4 4 5 5 6 7 8 8 8 8 8 9 9 10 11 11 12 12 12 13 12 12 13 13 13 14 14 14 15 15 16 16 16 16 16 16 17 16
4 3 3 4 4 5 6 6 6 6 8 8 9 9 9 10 10 10 10 11 12 12 13 13 13 13 14 14 14 14 14 14 15 16 16 16 17 17 17 17 17 17 17
4 4 4 5 5 6 6 6 7 7 7 7 9 9 10 10 11 10 11 12 13 13 13 13 14 14 14 14 14 15 15 16 16 17 17 18 18 18 18 18 18 18 19
5 5 5 5 5 6 6 6 7 7 7 8 8 9 9 10 10 11 12 13 12 13 13 13 14 14 14 15 15 16 16 16 16 17 18 18 19 19 19 19 20 20 20
6 6 6 5 6 6 7 7 7 7 8 9 9 9 10 11 11 12 12 13 13 13 13 13 14 14 15 16 17 16 16 17 18 18 19 20 20 20 20 20 20 20 20
7 7 7 6 6 7 7 7 7 7 8 9 9 10 10 10 11 11 11 12 12 13 13 13 13 15 16 17 17 17 17 18 19 19 20 21 21 21 22 22 22 21 21
8 8 8 8 8 8 8 8 8 8 9 9 9 10 10 10 10 11 11 12 12 13 13 14 15 15 16 17 17 18 19 19 20 21 21 22 23 23 23 23 23 23 23
9 9 10 10 9 9 10 9 9 9 9 10 10 10 11 12 12 13 13 13 13 14 14 15 16 16 17 18 18 19 20 20 21 22 22 23 24 24 24 24 24 23 24
11 11 11 11 11 11 11 11 11 11 11 10 11 11 12 13 13 14 15 15 15 15 15 16 16 17 18 19 20 21 21 22 23 23 24 24 25 25 25 25 26 26 26
14 14 13 13 13 13 12 12 13 13 13 13 13 13 14 15 15 15 16 17 17 17 16 17 18 19 20 21 22 22 23 23 24 25 25 25 25 26 26 26 27 27 27
17 17 16 16 15 15 15 15 14 14 15 15 15 15 16 17 17 18 18 19 19 19 19 19 20 21 21 23 23 23 24 25 25 26 26 26 27 27 28 28 27 27 27
20 20 20 19 18 18 17 17 17 17 17 17 18 18 19 19 19 20 20 20 21 21 22 22 22 23 24 24 25 25 26 26 26 27 27 27 28 28 28 29 28 28 28
21 21 21 21 21 20 20 20 19 19 20 20 20 20 21 21 20 21 21 22 22 23 23 24 24 24 25 26 26 26 26 26 26 27 27 28 28 29 29 29 29 29 29
22 22 21 22 22 21 21 21 21 21 21 22 22 23 23 23 22 22 23 23 24 24 24 25 25 25 25 26 26 27 27 27 27 27 27 27 27 28 29 29 29 29 29
23 23 22 21 22 22 22 23 23 23 23 23 24 25 25 24 24 24 25 25 25 25 25 26 26 26 26 27 27 27 27 27 27 28 27 27 28 28 29 29 29 30 30
25 25 25 24 24 24 24 24 24 24 24 24 24 25 25 25 26 26 27 27 28 28 27 27 27 27 27 28 28 28 28 28 29 29 29 28 29 28 28 28 29 29 29
26 26 26 26 27 26 26 26 25 25 24 25 25 24 26 27 27 28 28 29 29 28 28 29 29 30 30 30 30 30 31 31 30 30 29 29 29 29 29 29 29 29 30
26 26 26 27 27 27 27 27 27 26 26 27 27 27 27 28 29 29 29 30 30 30 30 30 31 31 30 30 30 30 31 31 31 30 30 30 30 30 30 30 30 30 31
27 26 26 26 27 27 27 28 28 28 28 28 29 29 29 30 30 31 31 31 31 31 32 32 31 31 31 31 31 31 31 31 31 30 30 30 30 31 31 31 31 32 32
Wind_Direction
122 127 139 142 146 158 169 170 174 175 180 186 186 187 196 204 201 210 226 232 236 245 254 257 253 261 274 277 276 276 272 270 275 278 276 279 281 284 285 285 283 286 289
107 118 126 138 143 157 178 185 185 186 191 200 207 211 216 222 232 239 246 246 247 254 260 262 263 266 270 269 276 280 279 281 282 282 280 281 283 281 282 284 281 282 283
92 92 116 146 160 162 180 196 202 201 205 215 222 229 229 238 246 250 252 250 252 259 265 265 266 270 273 273 276 279 278 279 279 281 282 283 286 286 283 284 281 281 280
77 88 94 144 183 193 199 208 214 216 223 232 235 238 240 245 254 259 260 257 259 264 265 264 265 272 274 274 271 275 275 276 279 281 284 287 286 284 282 280 280 279 281
40 62 75 127 214 219 228 232 232 233 234 238 242 245 247 251 254 259 260 263 266 268 267 265 266 271 276 276 275 275 275 276 278 280 284 288 289 286 283 280 279 279 281
346 348 326 294 277 253 251 248 243 240 238 239 245 251 253 256 257 259 259 261 265 267 270 267 267 270 275 278 275 276 277 278 279 279 282 285 288 289 289 287 284 282 281
334 316 302 299 291 275 265 263 261 249 248 244 249 256 257 261 259 259 262 264 265 267 271 267 268 272 274 277 278 277 277 276 278 279 279 282 284 285 286 284 283 283 281
338 320 304 299 292 284 270 265 267 266 259 253 256 262 266 267 269 268 268 269 270 271 272 272 272 275 275 276 277 279 280 276 276 278 279 279 281 285 285 284 282 282 280
332 317 307 300 291 280 273 270 269 270 264 260 260 262 264 267 269 271 272 272 273 275 277 275 274 275 277 279 280 280 281 279 278 278 279 281 283 285 286 288 281 279 280
336 318 311 300 300 288 279 271 271 270 268 264 264 266 267 268 268 271 273 276 276 274 276 274 271 273 275 278 281 281 279 281 281 280 280 281 283 285 286 288 287 281 280
331 321 310 297 296 295 288 279 273 272 269 268 268 268 269 270 271 273 274 277 277 273 275 276 274 274 276 277 280 282 281 282 283 283 282 282 283 283 283 284 285 282 280
317 313 304 300 300 300 298 291 284 277 270 269 269 270 271 273 273 273 277 279 278 276 276 277 277 277 278 278 279 282 284 284 283 283 284 283 281 281 281 281 282 281 279
314 307 301 297 296 297 296 294 290 286 278 271 268 270 272 273 273 275 277 280 281 282 281 280 279 280 282 282 282 283 284 283 282 282 283 283 283 282 282 281 280 280 279
309 303 302 298 293 292 292 292 289 285 283 280 276 274 271 272 274 275 277 279 279 282 284 285 284 284 284 283 283 284 284 284 284 285 285 284 284 285 284 283 280 278 277
297 296 298 297 295 292 289 287 284 280 277 279 279 278 277 276 278 277 278 279 280 282 283 285 287 286 285 284 285 286 286 286 286 286 286 285 284 285 286 284 282 281 279
288 290 291 288 289 289 285 282 280 277 274 274 277 278 280 281 281 281 281 280 281 281 281 282 284 287 287 286 287 287 288 289 289 286 286 286 285 285 285 284 283 282 280
288 290 289 286 284 284 285 283 281 276 276 275 275 277 281 283 283 281 281 281 282 282 281 282 284 286 289 290 289 288 288 290 289 287 287 287 286 285 285 285 285 283 281
286 284 285 284 283 280 279 279 280 279 279 279 281 280 280 282 282 283 282 282 283 282 283 283 285 286 288 289 290 290 289 291 291 289 287 287 286 286 285 285 285 284 281
289 284 281 279 279 279 277 276 276 276 277 278 280 282 282 282 282 282 282 282 282 283 284 285 285 285 286 288 288 289 290 291 290 289 288 286 286 286 285 284 283 282 282
290 291 284 278 277 277 276 274 274 274 275 277 278 279 281 281 280 282 283 283 284 285 286 287 287 286 286 286 286 288 290 291 291 289 287 286 286 285 284 284 282 282 282
289 290 287 277 274 276 276 275 275 275 278 278 277 276 278 279 279 281 285 285 285 287 288 288 288 288 288 287 288 289 290 291 292 292 291 290 289 287 286 285 284 283 282
287 286 285 280 276 275 274 275 274 274 278 279 278 277 278 279 281 282 283 284 285 286 288 288 287 287 288 288 290 291 292 292 292 292 291 290 290 289 287 286 285 283 282
285 282 280 277 274 272 271 272 272 273 276 279 278 278 279 280 281 282 282 283 284 285 287 288 288 288 289 289 290 291 292 292 293 294 293 292 291 290 289 289 287 285 283
286 284 279 276 274 273 272 273 273 274 275 277 279 280 281 283 283 284 284 285 286 287 288 289 288 288 289 290 290 290 289 290 292 293 293 293 292 291 290 290 288 286 285
285 284 283 279 276 276 274 275 275 275 276 277 279 280 281 283 285 286 286 288 287 287 287 288 288 289 290 290 291 291 291 290 290 291 292 292 291 291 291 291 289 287 287
286 282 281 280 279 277 277 276 274 274 275 276 278 280 281 283 284 285 285 288 288 286 285 287 288 289 289 290 290 291 291 290 290 290 291 290 290 290 290 289 288 288 288
Height
5880 5881 5881 5882 5883 5884 5885 5886 5887 5888 5890 5890 5891 5892 5893 5894 5894 5895 5895 5896 5896 5896 5897 5897 5897 5897 5897 5897 5897 5897 5897 5897 5897 5897 5897 5898 5898 5898 5898 5898 5897 5897 5897
5881 5882 5883 5883 5884 5885 5886 5887 5888 5889 5889 5890 5891 5892 5892 5893 5894 5894 5895 5895 5896 5896 5896 5896 5896 5896 5896 5896 5896 5896 5896 5896 5896 5896 5896 5896 5896 5896 5896 5896 5896 5896 5896
5883 5883 5883 5884 5884 5885 5886 5887 5887 5888 5889 5890 5891 5891 5892 5893 5893 5894 5894 5894 5895 5895 5895 5895 5895 5895 5895 5895 5895 5895 5895 5895 5895 5895 5895 5895 5895 5895 5894 5894 5894 5894 5894
5884 5884 5884 5884 5884 5885 5886 5886 5887 5888 5889 5889 5890 5890 5891 5891 5892 5892 5893 5893 5893 5893 5893 5893 5893 5893 5893 5893 5893 5893 5893 5893 5893 5893 5893 5893 5893 5892 5892 5892 5892 5891 5891
5884 5884 5884 5884 5884 5885 5885 5886 5886 5887 5888 5888 5889 5889 5890 5890 5891 5891 5891 5892 5892 5892 5891 5891 5892 5892 5892 5892 5892 5892 5892 5891 5891 5891 5891 5890 5890 5890 5889 5889 5889 5888 5888
5884 5884 5884 5884 5884 5884 5885 5885 5885 5886 5886 5887 5887 5888 5888 5889 5889 5889 5890 5890 5890 5890 5889 5889 5889 5890 5890 5890 5890 5889 5889 5889 5889 5888 5888 5888 5887 5887 5886 5886 5886 5885 5885
5884 5884 5884 5884 5883 5883 5884 5884 5884 5884 5884 5885 5886 5886 5886 5887 5887 5887 5887 5888 5888 5888 5887 5887 5887 5887 5887 5887 5887 5887 5887 5886 5886 5886 5885 5885 5884 5884 5883 5883 5882 5882 5882
5884 5884 5883 5883 5883 5883 5883 5883 5883 5883 5883 5883 5884 5884 5884 5885 5885 5885 5885 5885 5885 5885 5885 5885 5885 5885 5885 5884 5884 5884 5883 5883 5883 5882 5881 5881 5881 5880 5879 5879 5878 5878 5878
5884 5883 5883 5882 5882 5882 5881 5881 5881 5881 5881 5881 5882 5882 5882 5883 5883 5883 5883 5883 5883 5883 5883 5882 5882 5882 5882 5881 5881 5880 5880 5879 5879 5878 5878 5878 5877 5876 5876 5875 5874 5874 5874
5884 5883 5882 5882 5881 5881 5880 5880 5880 5879 5879 5880 5880 5880 5880 5880 5880 5880 5881 5880 5880 5880 5879 5879 5879 5879 5878 5878 5877 5877 5876 5876 5875 5875 5874 5874 5873 5872 5872 5871 5870 5869 5869
5883 5882 5881 5881 5880 5879 5879 5878 5878 5878 5878 5878 5878 5878 5878 5877 5877 5878 5877 5877 5877 5876 5876 5876 5875 5875 5875 5875 5874 5873 5873 5872 5871 5871 5870 5869 5868 5868 5867 5866 5865 5864 5864
5882 5881 5880 5879 5878 5878 5877 5876 5876 5876 5875 5875 5875 5875 5875 5875 5875 5875 5874 5873 5873 5873 5873 5872 5872 5872 5871 5871 5870 5870 5869 5868 5867 5867 5866 5865 5864 5863 5862 5861 5860 5859 5859
5880 5880 5879 5877 5877 5876 5876 5875 5874 5873 5873 5873 5872 5872 5872 5872 5872 5871 5871 5871 5870 5869 5869 5869 5868 5868 5867 5867 5866 5865 5864 5864 5863 5862 5861 5860 5859 5858 5857 5856 5855 5854 5853
5879 5878 5877 5876 5875 5874 5874 5873 5872 5871 5870 5870 5870 5870 5869 5869 5869 5868 5868 5868 5867 5866 5866 5865 5864 5864 5863 5862 5862 5861 5860 5859 5858 5857 5856 5855 5853 5852 5851 5850 5849 5848 5847
5876 5875 5875 5874 5873 5872 5871 5870 5869 5868 5868 5867 5867 5867 5866 5866 5865 5865 5865 5864 5864 5863 5862 5861 5860 5859 5859 5858 5857 5856 5855 5854 5853 5852 5851 5849 5848 5847 5846 5844 5843 5842 5841
5873 5873 5872 5871 5870 5869 5868 5867 5866 5866 5865 5864 5864 5863 5863 5863 5862 5862 5861 5861 5860 5859 5858 5857 5856 5855 5854 5853 5852 5851 5850 5849 5847 5846 5845 5843 5842 5841 5839 5838 5836 5835 5834
5870 5869 5868 5868 5867 5866 5865 5864 5863 5863 5862 5861 5860 5860 5859 5859 5858 5858 5857 5856 5856 5855 5854 5853 5852 5851 5849 5848 5847 5845 5844 5843 5841 5840 5838 5837 5836 5834 5833 5831 5830 5828 5827
5866 5865 5864 5863 5862 5862 5861 5860 5860 5859 5858 5857 5856 5856 5855 5855 5854 5853 5852 5851 5851 5850 5850 5849 5847 5845 5844 5842 5841 5840 5838 5836 5835 5833 5831 5830 5829 5827 5826 5824 5823 5821 5820
5861 5859 5859 5858 5857 5856 5856 5855 5855 5854 5853 5853 5852 5851 5851 5850 5849 5848 5847 5846 5845 5844 5843 5842 5841 5840 5838 5836 5835 5833 5831 5829 5827 5826 5824 5823 5821 5819 5818 5816 5815 5814 5812
5855 5853 5852 5852 5851 5851 5850 5849 5849 5849 5848 5848 5847 5846 5846 5845 5844 5843 5842 5841 5840 5839 5837 5836 5835 5833 5832 5830 5828 5827 5825 5822 5820 5818 5816 5815 5813 5811 5810 5808 5807 5806 5805
5849 5847 5846 5846 5845 5845 5844 5844 5843 5843 5843 5842 5841 5840 5839 5839 5838 5837 5836 5835 5834 5832 5831 5830 5828 5827 5825 5823 5821 5820 5818 5816 5813 5811 5809 5807 5805 5803 5802 5800 5799 5798 5797
5843 5841 5841 5840 5839 5838 5838 5838 5837 5837 5836 5836 5835 5834 5833 5832 5831 5830 5830 5828 5827 5826 5824 5823 5821 5820 5818 5816 5814 5812 5810 5808 5806 5804 5801 5799 5797 5795 5793 5792 5791 5789 5788
5836 5835 5834 5833 5832 5832 5831 5831 5830 5830 5830 5829 5828 5827 5826 5825 5824 5823 5822 5821 5820 5818 5817 5816 5814 5812 5811 5809 5807 5805 5802 5800 5799 5796 5794 5792 5790 5788 5786 5784 5782 5781 5780
5829 5828 5827 5826 5825 5825 5825 5824 5824 5823 5823 5822 5821 5820 5819 5819 5817 5816 5815 5813 5812 5811 5809 5808 5807 5805 5802 5800 5798 5796 5794 5792 5791 5788 5786 5785 5782 5780 5778 5776 5774 5772 5771
5822 5820 5819 5818 5818 5818 5818 5817 5817 5816 5816 5815 5814 5813 5812 5811 5809 5808 5807 5805 5804 5803 5801 5799 5798 5796 5793 5791 5789 5788 5786 5784 5782 5780 5778 5776 5774 5772 5770 5768 5765 5764 5762
5814 5813 5812 5811 5811 5811 5810 5809 5809 5808 5808 5807 5806 5805 5804 5803 5801 5800 5798 5797 5795 5794 5792 5791 5789 5787 5785 5783 5781 5779 5777 5775 5773 5772 5769 5768 5765 5763 5762 5759 5757 5755 5753